星链-2428 (STARLINK-2428 )

导读 | 豆包AI

STARLINK-2428是美国SpaceX公司星链(Starlink)低轨互联网星座中的一颗卫星,于2021年4月7日发射入轨。作为星链大规模组网的组成部分,它运行于近地轨道,搭载Ku/Ka波段通信载荷与霍尔推进系统,服务于全球宽带互联网覆盖,尤其为偏远地区提供高速低延迟网络接入,是星链星座持续扩展全球通信能力的重要节点。

Basic Information
目录编号:
48099
目录名称:
STARLINK-2428
国际标识:
2021-027H
轨道中心:
EARTH
卫星名称:
星链-2428
卫星全名:
星链-2428 (STARLINK-2428 )
卫星状态:
在轨 (已飞行1802 天)
发射日期:
2021-04-07 UTC
国别 :
美国 (US)
星等 :
--
Orbit Information
数据来源 国际轨道数据 AOE轨道数据
星历时间 2026-03-12T20:16:00+0800
2天前
查看轨道信息
2026-03-13T09:00:00+0800
1天前
查看轨道信息
半长轴 6853.364km 6853.304km
偏心率 0.0001386 0.0001497
轨道倾角 53.160° 53.160°
近地点辐角 83.538° 71.899°
升交点赤经 154.686° 152.223°
平近点角 276.577° 332.552°
近地点 474.277km 474.141km
远地点 476.177km 476.193km
周期 94.106分钟 94.104分钟
每日圈数 15.301962 15.302164
Detailed Information
固有亮度:
5
最大亮度:
2.5
卫星平台:
Starlink V1.0
覆盖范围:
全球
运营商:
太空探索技术公司
运营商所在国:
美国
制造商(研发单位):
太空探索技术公司
制造商所在国:
美国
使用方式:
暂无
Satellite Introduction
星链(Starlink)计划是由太空探索技术公司(SpaceX)提出的一个巨型低轨卫星互联网星座项目,计划在2019年至2024年间在太空搭建由约1.2万颗卫星组成的“星链”网络,其中1584颗将部署在地球上空550千米处的近地轨道,并从2020年开始工作。该卫星仍在工作。
2D Orbit Map
3D Orbit Map
Orbit Altitude Analysis Chart
Orbit Inclination Analysis Chart
Orbit Comprehensive Analysis Chart
View Comprehensive Chart